This demonstration page uses our WeatherBlox Daily Observations layout. Learn more.

Hourly Observations for February 26, 2020

Temp ( °F °C ) Dew Point ( °F °C ) Humidity (%) Winds ( mph kmh ) Pressure ( in mb ) Visibility ( mi km ) Precip ( " mm )
12:54 am 00:54 Cloudy 30 -1.1 21 -6.1 69 69 N 20 31 30.42 1030 10 16.0934 0 0
1:54 am 01:54 Cloudy 29 -1.7 20 -6.7 69 69 N 20 31 30.42 1030 10 16.0934 0 0
2:54 am 02:54 Cloudy 27 -2.8 19 -7.2 72 72 N 24 39 30.42 1030 10 16.0934 0 0
3:19 am 03:19 Cloudy 27 -2.8 18 -7.8 69 69 NNW 16 26 30.45 1031 10 16.0934 0 0
3:54 am 03:54 Cloudy 26 -3.3 17 -8.3 69 69 N 16 26 30.42 1030 10 16.0934 0 0
4:54 am 04:54 Mostly Cloudy 24 -4.4 16 -8.9 71 71 NNW 16 26 30.43 1030 10 16.0934 0 0
5:54 am 05:54 Clear 23 -5 15 -9.4 72 72 NNW 15 24 30.45 1031 10 16.0934 0 0
6:54 am 06:54 Clear 21 -6.1 14 -10 74 74 NNW 12 19 30.45 1031 10 16.0934 0 0
7:54 am 07:54 Sunny 22 -5.6 14 -10 71 71 NNW 13 20 30.46 1032 10 16.0934 0 0
8:54 am 08:54 Sunny 26 -3.3 13 -10.6 57 57 N 21 33 30.48 1032 10 16.0934 0 0
9:54 am 09:54 Sunny 30 -1.1 11 -11.7 45 45 NNW 16 26 30.47 1032 10 16.0934 0 0
10:54 am 10:54 Sunny 33 0.6 10 -12.2 38 38 NNW 15 24 30.46 1032 10 16.0934 0 0
11:54 am 11:54 Sunny 36 2.2 7 -13.9 30 30 NNW 8 13 30.44 1031 10 16.0934 0 0
12:54 pm 12:54 Sunny 37 2.8 7 -13.9 28 28 N 13 20 30.4 1030 10 16.0934 0 0
1:54 pm 13:54 Sunny 39 3.9 8 -13.3 28 28 NNW 13 20 30.38 1029 10 16.0934 0 0
2:54 pm 14:54 Sunny 39 3.9 8 -13.3 28 28 NW 10 17 30.37 1028 10 16.0934 0 0
3:54 pm 15:54 Sunny 40 4.4 8 -13.3 27 27 WNW 9 15 30.35 1028 10 16.0934 0 0
4:54 pm 16:54 Sunny 39 3.9 9 -12.8 29 29 WNW 9 15 30.33 1027 10 16.0934 0 0
5:54 pm 17:54 Sunny 37 2.8 12 -11.1 36 36 W 7 11 30.31 1026 10 16.0934 0 0
6:54 pm 18:54 Clear 34 1.1 13 -10.6 42 42 SW 6 9 30.3 1026 10 16.0934 0 0
7:54 pm 19:54 Clear 31 -0.6 14 -10 49 49 WSW 3 6 30.3 1026 10 16.0934 0 0
8:54 pm 20:54 Clear 30 -1.1 15 -9.4 54 54 SW 7 11 30.29 1026 10 16.0934 0 0
9:54 pm 21:54 Clear 29 -1.7 16 -8.9 58 58 WSW 5 7 30.28 1025 10 16.0934 0 0
10:54 pm 22:54 Clear 28 -2.2 17 -8.3 63 63 SW 7 11 30.25 1025 10 16.0934 0 0
11:54 pm 23:54 Cloudy 29 -1.7 17 -8.3 61 61 SW 6 9 30.21 1023 10 16.0934 0 0

Powered by AerisWeather